Location: Ladysmith
(45.4630°N, 91.1040°W)
Time: 01:22:19
(UTC-05:00)

Tiangong 2 - Visible Passes

Search period start: 26 May 2018 00:00
Search period end: 05 June 2018 00:00
Orbit: 382 x 385 km, 42.8° (Epoch: 25 May)

Date Brightness Start Highest point End Pass type
(mag) Time Alt. Az. Time Alt. Az. Time Alt. Az.
26 May 1.2 21:54:56 10° WSW 21:58:01 52° S 22:00:15 17° ESE visible
26 May 3.4 23:31:37 10° W 23:32:27 16° WSW 23:32:27 16° WSW visible
27 May 1.5 22:31:46 10° W 22:34:47 42° S 22:35:16 38° SSE visible
28 May 1.4 21:31:58 10° W 21:35:01 49° S 21:38:01 10° ESE visible
28 May 3.1 23:08:49 10° WSW 23:10:12 18° SW 23:10:12 18° SW visible
29 May 2.0 22:08:51 10° W 22:11:43 32° SSW 22:12:57 23° SSE visible
30 May 3.2 22:46:13 10° WSW 22:47:51 16° SW 22:47:51 16° SW visible
31 May 2.6 21:46:00 10° WSW 21:48:36 23° SSW 21:50:34 14° SSE visible
01 Jun 3.6 22:24:47 10° SW 22:25:01 10° SSW 22:25:13 10° SSW visible
02 Jun 3.2 21:23:21 10° WSW 21:25:24 16° SSW 21:27:27 10° SSE visible
